ONEWEB-0614 (55156 NORAD) Tracking and Keplerian Element Data

This shows tracking and keplerian element data for the satellite.

Feedback or suggestion? Click here.




ElementValue
Catalog55156
NameONEWEB-0614
Epoch Orbit130
Epoch Day13.91667824
Epoch Year2023
RAAN284.143
Inclination86.5113
Eccentricity0.0009347
Argument of Perigee197.963
Mean Anonmoly65.447
Mean Motion14.90791841
Decay Rate-0.00048176
L11 55156U 23004S 23013.91667824 -.00048176 00000+0 -49397-2 0 9994
L22 55156 86.5113 284.1430 0009347 197.9630 65.4470 14.90791841 1302



Live tracking and technical data element details for ONEWEB-0614 (NORAD 55156). ONEWEB-0614 can be tracked NOW for your location showing map with azimuth and elevation plus other details from your city location.







IsCatalogInMostPopularTable: catalog: 55156, numindb: 3
Update: records affected: 1



GetName: 55156 ONEWEB-0614

Hit Count: updated at: Tue, 07 Feb 2023 14:55:06 GMT